• In Belarus
  • List of Countries
  • For 7 days
  • Water Temperature
  • Satellite Maps
  • Weather Map
  • Weather Widgets
  • user-avatar
    Login

    Hourly Weather Lubango

    Today, 22 January, Monday

    Time Temperature Precipitation Wind Pressure Humidity
    00:00 +15°C° 0.2 mm 1 mps 608 mmHg 93%
    01:00 +15°C° 0 mm 1 mps 608 mmHg 93%
    02:00 +14°C° 0.1 mm 1 mps 608 mmHg 93%
    03:00 +13°C° 0.1 mm 0 mps 608 mmHg 94%
    04:00 +13°C° 0.1 mm 0 mps 608 mmHg 94%
    05:00 +13°C° 0.1 mm 0 mps 608 mmHg 93%
    06:00 +14°C° 0.1 mm 0 mps 608 mmHg 92%
    07:00 +14°C° 0.1 mm 0 mps 608 mmHg 90%
    08:00 +16°C° 0.3 mm 0 mps 609 mmHg 83%
    09:00 +17°C° 0.3 mm 0 mps 610 mmHg 75%
    10:00 +21°C° 0.3 mm 1 mps 611 mmHg 67%
    11:00 +22°C° 1.6 mm 1 mps 610 mmHg 66%
    12:00 +22°C° 1.6 mm 1 mps 610 mmHg 65%
    13:00 +23°C° 1.6 mm 2 mps 610 mmHg 63%
    14:00 +21°C° 2 mm 2 mps 609 mmHg 66%
    15:00 +20°C° 2 mm 2 mps 609 mmHg 69%
    16:00 +20°C° 2 mm 2 mps 608 mmHg 72%
    17:00 +19°C° 1.8 mm 2 mps 608 mmHg 77%
    18:00 +18°C° 1.8 mm 2 mps 608 mmHg 82%
    19:00 +17°C° 1.8 mm 2 mps 608 mmHg 87%
    20:00 +16°C° 2.3 mm 1 mps 608 mmHg 89%
    21:00 +16°C° 2.3 mm 1 mps 608 mmHg 90%
    22:00 +16°C° 2.3 mm 1 mps 609 mmHg 91%
    23:00 +16°C° 0.5 mm 1 mps 608 mmHg 92%

    Tomorrow, 23 January, Tuesday

    Time Temperature Precipitation Wind Pressure Humidity
    00:00 +16°C° 0.5 mm 1 mps 608 mmHg 93%
    01:00 +15°C° 0.5 mm 1 mps 608 mmHg 93%
    02:00 +15°C° 0.5 mm 1 mps 608 mmHg 94%
    03:00 +15°C° 0.5 mm 1 mps 607 mmHg 94%
    04:00 +15°C° 0.5 mm 1 mps 607 mmHg 94%
    05:00 +14°C° 1 mm 0 mps 607 mmHg 93%
    06:00 +14°C° 1 mm 0 mps 607 mmHg 92%
    07:00 +14°C° 1 mm 0 mps 608 mmHg 91%
    08:00 +16°C° 0.9 mm 0 mps 608 mmHg 85%
    09:00 +19°C° 0.9 mm 1 mps 609 mmHg 80%
    10:00 +20°C° 0.9 mm 1 mps 610 mmHg 74%
    11:00 +21°C° 0.9 mm 1 mps 609 mmHg 73%
    12:00 +21°C° 0.9 mm 1 mps 609 mmHg 71%
    13:00 +22°C° 0.9 mm 1 mps 608 mmHg 70%
    14:00 +21°C° 1.5 mm 1 mps 608 mmHg 73%
    15:00 +19°C° 1.5 mm 2 mps 607 mmHg 75%
    16:00 +19°C° 1.5 mm 2 mps 607 mmHg 78%
    17:00 +18°C° 1.4 mm 2 mps 607 mmHg 82%
    18:00 +17°C° 1.4 mm 2 mps 607 mmHg 86%
    19:00 +16°C° 1.4 mm 1 mps 607 mmHg 90%
    20:00 +16°C° 0.4 mm 1 mps 607 mmHg 91%
    21:00 +15°C° 0.4 mm 1 mps 608 mmHg 92%
    22:00 +15°C° 0.4 mm 1 mps 608 mmHg 93%
    23:00 +15°C° 0.1 mm 1 mps 608 mmHg 94%

    Day after tomorrow, 24 January, Wednesday

    Time Temperature Precipitation Wind Pressure Humidity
    00:00 +15°C° 0.1 mm 1 mps 608 mmHg 94%
    01:00 +15°C° 0.1 mm 1 mps 607 mmHg 94%
    02:00 +15°C° 0.2 mm 1 mps 607 mmHg 94%
    03:00 +15°C° 0.2 mm 1 mps 607 mmHg 94%
    04:00 +14°C° 0.2 mm 1 mps 607 mmHg 95%
    05:00 +15°C° 0.3 mm 1 mps 607 mmHg 94%
    06:00 +15°C° 0.3 mm 1 mps 608 mmHg 93%
    07:00 +14°C° 0.3 mm 0 mps 608 mmHg 92%
    08:00 +15°C° 0.6 mm 0 mps 609 mmHg 87%
    09:00 +16°C° 0.6 mm 0 mps 609 mmHg 83%
    10:00 +19°C° 0.6 mm 1 mps 610 mmHg 78%
    11:00 +20°C° 0.9 mm 1 mps 609 mmHg 75%
    12:00 +21°C° 0.9 mm 1 mps 609 mmHg 71%
    13:00 +22°C° 0.9 mm 1 mps 609 mmHg 67%
    14:00 +21°C° 1.4 mm 1 mps 609 mmHg 70%
    15:00 +20°C° 1.4 mm 1 mps 608 mmHg 72%
    16:00 +20°C° 1.4 mm 1 mps 607 mmHg 75%
    17:00 +19°C° 1 mm 1 mps 607 mmHg 79%
    18:00 +18°C° 1 mm 1 mps 607 mmHg 83%
    19:00 +16°C° 1 mm 1 mps 607 mmHg 87%
    20:00 +16°C° 0.3 mm 1 mps 608 mmHg 88%
    21:00 +16°C° 0.3 mm 1 mps 608 mmHg 90%
    22:00 +15°C° 0.3 mm 1 mps 608 mmHg 91%
    23:00 +15°C° 0.3 mm 1 mps 608 mmHg 92%

    25 January, Thursday

    Time Temperature Precipitation Wind Pressure Humidity
    00:00 +15°C° 0.3 mm 1 mps 608 mmHg 93%
    01:00 +15°C° 0.3 mm 1 mps 607 mmHg 94%
    02:00 +15°C° 0.1 mm 1 mps 607 mmHg 94%
    03:00 +13°C° 0.1 mm 0 mps 607 mmHg 94%
    04:00 +13°C° 0.1 mm 0 mps 607 mmHg 94%
    05:00 +14°C° 0.4 mm 0 mps 607 mmHg 93%
    06:00 +14°C° 0.4 mm 0 mps 608 mmHg 91%
    07:00 +14°C° 0.4 mm 0 mps 608 mmHg 90%
    08:00 +15°C° 0.5 mm 0 mps 609 mmHg 83%
    09:00 +17°C° 0.5 mm 0 mps 609 mmHg 76%
    10:00 +20°C° 0.5 mm 1 mps 610 mmHg 70%
    11:00 +21°C° 1.1 mm 1 mps 610 mmHg 68%
    12:00 +21°C° 1.1 mm 1 mps 609 mmHg 66%
    13:00 +22°C° 1.1 mm 1 mps 609 mmHg 64%
    14:00 +21°C° 1.1 mm 1 mps 608 mmHg 66%
    15:00 +21°C° 1.1 mm 1 mps 608 mmHg 68%
    16:00 +20°C° 1.1 mm 2 mps 607 mmHg 70%
    17:00 +19°C° 0.7 mm 2 mps 607 mmHg 74%
    18:00 +19°C° 0.7 mm 1 mps 607 mmHg 78%
    19:00 +18°C° 0.7 mm 1 mps 608 mmHg 82%
    20:00 +18°C° 0.6 mm 1 mps 608 mmHg 84%
    21:00 +16°C° 0.6 mm 1 mps 608 mmHg 85%
    22:00 +16°C° 0.6 mm 1 mps 608 mmHg 87%
    23:00 +16°C° 0.2 mm 1 mps 608 mmHg 88%

    26 January, Friday

    Time Temperature Precipitation Wind Pressure Humidity
    00:00 +15°C° 0.2 mm 1 mps 608 mmHg 89%
    01:00 +15°C° 0.2 mm 1 mps 607 mmHg 90%
    02:00 +14°C° 0 mm 0 mps 607 mmHg 91%
    03:00 +14°C° 0 mm 0 mps 607 mmHg 91%
    04:00 +13°C° 0 mm 0 mps 606 mmHg 91%
    05:00 +14°C° 0 mm 0 mps 607 mmHg 89%
    06:00 +14°C° 0 mm 0 mps 608 mmHg 87%
    07:00 +15°C° 0 mm 0 mps 608 mmHg 84%
    08:00 +16°C° 0 mm 0 mps 609 mmHg 77%
    09:00 +20°C° 0 mm 1 mps 609 mmHg 69%
    10:00 +21°C° 0 mm 1 mps 610 mmHg 61%
    11:00 +23°C° 0 mm 1 mps 610 mmHg 56%
    12:00 +24°C° 0 mm 2 mps 610 mmHg 51%
    13:00 +25°C° 0 mm 2 mps 610 mmHg 45%
    14:00 +25°C° 0.3 mm 2 mps 609 mmHg 47%
    15:00 +25°C° 0.3 mm 2 mps 609 mmHg 48%
    16:00 +25°C° 0.3 mm 2 mps 608 mmHg 50%
    17:00 +23°C° 0.7 mm 2 mps 608 mmHg 56%
    18:00 +20°C° 0.7 mm 2 mps 608 mmHg 63%
    19:00 +19°C° 0.7 mm 1 mps 607 mmHg 69%
    20:00 +19°C° 0.3 mm 1 mps 607 mmHg 73%
    21:00 +18°C° 0.3 mm 1 mps 607 mmHg 77%
    22:00 +16°C° 0.3 mm 1 mps 608 mmHg 80%
    23:00 +16°C° 0 mm 1 mps 607 mmHg 82%

    27 January, Saturday

    Time Temperature Precipitation Wind Pressure Humidity
    00:00 +16°C° 0 mm 1 mps 607 mmHg 84%
    01:00 +14°C° 0 mm 0 mps 607 mmHg 86%
    02:00 +14°C° 0.6 mm 0 mps 607 mmHg 85%
    03:00 +15°C° 0.6 mm 1 mps 606 mmHg 85%
    04:00 +15°C° 0.6 mm 1 mps 606 mmHg 85%
    05:00 +14°C° 0.3 mm 0 mps 607 mmHg 83%
    06:00 +15°C° 0.3 mm 0 mps 607 mmHg 81%
    07:00 +15°C° 0.3 mm 0 mps 608 mmHg 79%
    08:00 +17°C° 0.1 mm 0 mps 609 mmHg 72%
    09:00 +19°C° 0.1 mm 0 mps 609 mmHg 65%
    10:00 +20°C° 0.1 mm 0 mps 610 mmHg 59%
    11:00 +23°C° 0.4 mm 1 mps 610 mmHg 56%
    12:00 +24°C° 0.4 mm 1 mps 610 mmHg 53%
    13:00 +25°C° 0.4 mm 1 mps 609 mmHg 51%
    14:00 +25°C° 0.5 mm 1 mps 609 mmHg 51%
    15:00 +25°C° 0.5 mm 2 mps 608 mmHg 50%
    16:00 +25°C° 0.5 mm 2 mps 608 mmHg 50%
    17:00 +23°C° 0.2 mm 1 mps 608 mmHg 56%
    18:00 +22°C° 0.2 mm 1 mps 607 mmHg 62%
    19:00 +20°C° 0.2 mm 1 mps 607 mmHg 68%
    20:00 +19°C° 0.5 mm 1 mps 607 mmHg 71%
    21:00 +19°C° 0.5 mm 1 mps 607 mmHg 74%
    22:00 +16°C° 0.5 mm 0 mps 608 mmHg 77%
    23:00 +16°C° 0.3 mm 0 mps 607 mmHg 79%
    Show more